Weather History for Hot Springs, AR

Change the Weather History Date:

Saturday, March 16, 2013

  Actual Average Record
Temperature  
Mean Temperature 67 °F -  
Max Temperature 77 °F 65 °F 85 °F (1977)
Min Temperature 57 °F 41 °F 25 °F (1988)
Cooling Degree Days 2    
Growing Degree Days 17 (Base 50)    
Moisture  
Dew Point 49 °F    
Average Humidity 53    
Maximum Humidity 78    
Minimum Humidity 36    
Precipitation  
Precipitation 0.00 in - - ()
Sea Level Pressure  
Sea Level Pressure 29.85 in    
Wind  
Wind Speed 8 mph (SW)    
Max Wind Speed 13 mph    
Max Gust Speed 22 mph    
Visibility 10 miles    
Events      
Averages and records for this station are not official NWS values.
T = Trace of Precipitation, MM = Missing Value Source: NWS Daily Summary

Daily Weather History Graph

Daily Weather History Graph

Search for Another Location

Airport:

Trip Planner

Search our weather history database for the weather conditions in past years. The results will help you decide how hot, cold, wet, or windy it might be!

Date:

Astronomy

Mar. 16, 2013 Rise Set
Actual Time 7:21 AM CDT 7:21 PM CDT
Civil Twilight 6:56 AM CDT 7:46 PM CDT
Nautical Twilight 6:26 AM CDT 8:15 PM CDT
Astronomical Twilight 5:57 AM CDT 8:44 PM CDT
Moon 10:04 AM CDT (3/16) No Moon Set
Length of Visible Light 12h 50m
Length of Day
11h 59m
Waxing Crescent, 23% of the Moon is Illuminated
Mar 16
Waxing Crescent
Mar 19
First Quarter
Mar 27
Full
Apr 2
Last Quarter
Apr 10
New

Hourly Weather History & Observations

Time (CDT) Temp. Dew Point Humidity Pressure Visibility Wind Dir Wind Speed Gust Speed Precip Events Conditions
12:53 AM 66.9 °F 45.0 °F 45% 29.89 in 10.0 mi West 5.8 mph - N/A   Clear
1:53 AM 64.9 °F 46.0 °F 50% 29.89 in 10.0 mi SW 9.2 mph - N/A   Clear
2:53 AM 63.0 °F 46.9 °F 56% 29.88 in 10.0 mi SW 11.5 mph - N/A   Clear
3:53 AM 62.1 °F 48.9 °F 62% 29.87 in 10.0 mi SW 9.2 mph - N/A   Clear
4:53 AM 60.1 °F 50.0 °F 69% 29.87 in 10.0 mi SW 6.9 mph - N/A   Clear
5:53 AM 60.1 °F 51.1 °F 72% 29.88 in 10.0 mi SW 9.2 mph - N/A   Clear
6:53 AM 59.0 °F 51.1 °F 75% 29.89 in 10.0 mi WSW 8.1 mph - N/A   Clear
7:53 AM 57.9 °F 51.1 °F 78% 29.90 in 10.0 mi SSW 8.1 mph - N/A   Clear
8:53 AM 61.0 °F 51.1 °F 70% 29.91 in 10.0 mi SW 6.9 mph - N/A   Clear
9:53 AM 63.0 °F 52.0 °F 67% 29.91 in 10.0 mi SW 11.5 mph - N/A   Clear
10:53 AM 66.9 °F 52.0 °F 59% 29.90 in 10.0 mi WSW 12.7 mph 20.7 mph N/A   Clear
11:53 AM 69.1 °F 51.1 °F 53% 29.90 in 10.0 mi WSW 10.4 mph 21.9 mph N/A   Clear
12:53 PM 72.0 °F 51.1 °F 48% 29.88 in 10.0 mi SW 10.4 mph 18.4 mph N/A   Clear
1:53 PM 73.9 °F 51.1 °F 45% 29.86 in 10.0 mi SW 8.1 mph 18.4 mph N/A   Clear
2:53 PM 75.9 °F 50.0 °F 40% 29.81 in 10.0 mi SW 6.9 mph - N/A   Clear
3:53 PM 77.0 °F 50.0 °F 39% 29.79 in 10.0 mi South 10.4 mph - N/A   Clear
4:53 PM 77.0 °F 50.0 °F 39% 29.78 in 10.0 mi SSW 9.2 mph 21.9 mph N/A   Clear
5:53 PM 75.9 °F 46.9 °F 36% 29.77 in 10.0 mi South 10.4 mph 18.4 mph N/A   Clear
6:53 PM 75.0 °F 46.0 °F 36% 29.77 in 10.0 mi SSW 5.8 mph - N/A   Clear
7:53 PM 72.0 °F 46.9 °F 41% 29.78 in 10.0 mi South 3.5 mph - N/A   Clear
8:53 PM 70.0 °F 46.9 °F 44% 29.80 in 10.0 mi Calm Calm - N/A   Clear
9:53 PM 69.1 °F 46.9 °F 45% 29.81 in 10.0 mi South 3.5 mph - N/A   Clear
10:53 PM 69.1 °F 46.9 °F 45% 29.81 in 10.0 mi South 4.6 mph - N/A   Clear
11:53 PM 69.1 °F 48.0 °F 47% 29.81 in 10.0 mi South 6.9 mph - N/A   Clear